This is the latest recevied weather packets stored in our database for station/object K2CAT. If no packets are shown the sender has not sent any weather packets the latest 1 day(s).
| Time | Temp. | Humidity | Pressure | Rain* | Wind** | Luminosity | Snow |
|---|---|---|---|---|---|---|---|
| 1836274838 | 11.67° C | 92% | 1020.8 hPa | 0 mm | 0 m/s | 0 W/m² | - |
| 1836274535 | 12.22° C | 92% | 1020.8 hPa | 0 mm | 0 m/s | 0 W/m² | - |
| 1836274389 | 11.67° C | 93% | 1020.9 hPa | 0 mm | 0 m/s | 0 W/m² | - |
| 1836274235 | 12.22° C | 92% | 1020.8 hPa | 0 mm | 0 m/s | 0 W/m² | - |
| 1836273934 | 12.22° C | 92% | 1020.8 hPa | 0 mm | 0 m/s | 0 W/m² | - |
| 1778044894 | 17.22° C | 73% | 1008.1 hPa | 0 mm | 0 m/s | 0 W/m² | - |
| 1778044591 | 17.22° C | 73% | 1008.3 hPa | 0 mm | 0.45 m/s, 194° | 0 W/m² | - |
| 1778044287 | 17.22° C | 73% | 1008 hPa | 0 mm | 0.45 m/s, 323° | 0 W/m² | - |
| 1778043985 | 17.78° C | 72% | 1008.3 hPa | 0 mm | 0 m/s | 0 W/m² | - |
| 1778043682 | 17.22° C | 72% | 1008.2 hPa | 0 mm | 0 m/s | 0 W/m² | - |
| 1778043379 | 17.22° C | 74% | 1008.2 hPa | 0 mm | 0 m/s | 0 W/m² | - |
| 1778043075 | 17.22° C | 73% | 1008.3 hPa | 0 mm | 0 m/s | 0 W/m² | - |
| 1778042773 | 17.22° C | 73% | 1008.1 hPa | 0 mm | 0 m/s | 0 W/m² | - |
| 1778042470 | 17.78° C | 72% | 1008.2 hPa | 0 mm | 0 m/s | 0 W/m² | - |
| 1778042167 | 17.78° C | 71% | 1008.1 hPa | 0 mm | 0 m/s | 0 W/m² | - |
| 1778041865 | 17.78° C | 70% | 1008.2 hPa | 0 mm | 0 m/s | 0 W/m² | - |
| 1778041564 | 18.33° C | 69% | 1008.1 hPa | 0 mm | 0 m/s | 0 W/m² | - |
| 1778041261 | 18.33° C | 69% | 1008 hPa | 0 mm | 0 m/s | 0 W/m² | - |
| 1778040960 | 18.33° C | 70% | 1008 hPa | 0 mm | 0 m/s | 0 W/m² | - |
| 1778040656 | 18.33° C | 69% | 1008.1 hPa | 0 mm | 0 m/s | 0 W/m² | - |
| 1778040354 | 18.33° C | 69% | 1008.1 hPa | 0 mm | 0 m/s | 0 W/m² | - |
| 1778040050 | 18.33° C | 71% | 1008 hPa | 0 mm | 0 m/s | 0 W/m² | - |
| 1778039747 | 18.33° C | 70% | 1007.9 hPa | 0 mm | 0 m/s | 0 W/m² | - |
| 1778039444 | 18.33° C | 71% | 1007.7 hPa | 0 mm | 0 m/s | 0 W/m² | - |
| 1778039146 | 18.89° C | 70% | 1007.7 hPa | 0 mm | 0 m/s | 0 W/m² | - |
* Rain latest hour (hover to see other rain measurements)
** Current wind speed in m/s (hover to see current wind gust speed)